| time (UTC) | temp C | wind direction | speed KPH | gust KPH | rain 1hr cm | rain 24hr cm | rain mn cm | humidity % | barometer mb |
| 20260502221503 | 11 | 140 | 0.0 | 0.0 | 0.00 | 1.09 | 1.09 | 92 | 1010.5 |
| 20260502221003 | 11 | 140 | 0.0 | 0.0 | 0.00 | 1.09 | 1.09 | 92 | 1010.5 |
| 20260502215504 | 11 | 140 | 0.0 | 0.0 | 0.00 | 1.09 | 1.09 | 91 | 1010.5 |
| 20260502215004 | 11 | 140 | 0.0 | 0.0 | 0.00 | 1.09 | 1.09 | 91 | 1010.5 |
| 20260502214504 | 11 | 140 | 0.0 | 0.0 | 0.00 | 1.09 | 1.09 | 91 | 1010.5 |
| 20260502212503 | 11 | 27 | 0.0 | 0.0 | 0.00 | 1.09 | 1.09 | 90 | 1010.4 |
| 20260502211503 | 11 | 27 | 0.0 | 0.0 | 0.00 | 1.09 | 1.09 | 90 | 1010.3 |
| 20260502211004 | 11 | 27 | 0.0 | 0.0 | 0.00 | 1.09 | 1.09 | 90 | 1010.4 |
| 20260502210504 | 11 | 27 | 0.0 | 0.0 | 0.00 | 1.09 | 1.09 | 91 | 1010.5 |
| 20260502210004 | 11 | 27 | 0.0 | 0.0 | 0.00 | 1.09 | 1.09 | 91 | 1010.5 |
| 20260502205504 | 11 | 27 | 0.0 | 0.0 | 0.00 | 1.09 | 1.09 | 91 | 1010.5 |
| 20260502205004 | 11 | 27 | 0.0 | 0.0 | 0.00 | 1.09 | 1.09 | 91 | 1010.6 |
| 20260502204503 | 11 | 26 | 0.0 | 0.0 | 0.00 | 1.09 | 1.09 | 91 | 1010.6 |
| 20260502204004 | 11 | 25 | 0.0 | 1.6 | 0.03 | 1.09 | 1.09 | 91 | 1010.6 |
| 20260502203503 | 11 | 25 | 0.0 | 3.2 | 0.03 | 1.09 | 1.09 | 90 | 1010.7 |
| 20260502203003 | 11 | 25 | 0.0 | 0.0 | 0.03 | 1.09 | 1.09 | 90 | 1010.8 |
| 20260502202503 | 11 | 25 | 0.0 | 1.6 | 0.03 | 1.09 | 1.09 | 90 | 1010.8 |
| 20260502202003 | 11 | 25 | 0.0 | 0.0 | 0.03 | 1.09 | 1.09 | 90 | 1010.7 |
| 20260502201505 | 11 | 25 | 0.0 | 0.0 | 0.03 | 1.09 | 1.09 | 90 | 1010.7 |
| 20260502201004 | 11 | 25 | 0.0 | 0.0 | 0.03 | 1.09 | 1.09 | 90 | 1010.7 |
| 20260502200503 | 11 | 25 | 0.0 | 0.0 | 0.03 | 1.09 | 1.09 | 90 | 1010.7 |
| 20260502200004 | 11 | 25 | 0.0 | 1.6 | 0.03 | 1.09 | 1.09 | 90 | 1010.7 |
| 20260502195504 | 11 | 25 | 1.6 | 3.2 | 0.05 | 1.09 | 1.09 | 90 | 1010.8 |
| 20260502194503 | 11 | 24 | 1.6 | 3.2 | 0.05 | 1.09 | 1.09 | 90 | 1010.7 |
| 20260502194004 | 11 | 23 | 1.6 | 3.2 | 0.05 | 1.07 | 1.07 | 90 | 1010.7 |
| 20260502193504 | 11 | 17 | 1.6 | 3.2 | 0.05 | 1.07 | 1.07 | 90 | 1010.7 |
| 20260502193004 | 11 | 0 | 0.0 | 1.6 | 0.05 | 1.07 | 1.07 | 90 | 1010.7 |
| 20260502192503 | 11 | 355 | 1.6 | 3.2 | 0.05 | 1.07 | 1.07 | 89 | 1010.6 |
| 20260502192004 | 11 | 342 | 0.0 | 0.0 | 0.08 | 1.07 | 1.07 | 89 | 1010.6 |
| 20260502191504 | 11 | 338 | 0.0 | 0.0 | 0.08 | 1.07 | 1.07 | 89 | 1010.6 |
| 20260502191004 | 11 | 332 | 0.0 | 0.0 | 0.08 | 1.07 | 1.07 | 89 | 1010.7 |
| 20260502190503 | 11 | 332 | 0.0 | 3.2 | 0.10 | 1.07 | 1.07 | 89 | 1010.7 |
| 20260502190004 | 11 | 333 | 0.0 | 3.2 | 0.10 | 1.07 | 1.07 | 89 | 1010.7 |
| 20260502185503 | 11 | 333 | 0.0 | 0.0 | 0.10 | 1.04 | 1.04 | 89 | 1010.8 |
| 20260502185004 | 11 | 333 | 0.0 | 1.6 | 0.10 | 1.04 | 1.04 | 89 | 1010.8 |
| 20260502184505 | 11 | 333 | 0.0 | 0.0 | 0.08 | 1.02 | 1.02 | 89 | 1010.8 |
| 20260502184004 | 12 | 333 | 0.0 | 0.0 | 0.08 | 1.02 | 1.02 | 89 | 1010.8 |
| 20260502183504 | 12 | 333 | 0.0 | 3.2 | 0.08 | 1.02 | 1.02 | 89 | 1010.9 |
| 20260502183004 | 12 | 333 | 1.6 | 3.2 | 0.10 | 1.02 | 1.02 | 89 | 1010.9 |
| 20260502182504 | 12 | 331 | 1.6 | 4.8 | 0.10 | 0.99 | 0.99 | 89 | 1010.9 |
| 20260502182004 | 12 | 331 | 1.6 | 4.8 | 0.08 | 0.99 | 0.99 | 89 | 1010.9 |
| 20260502181004 | 12 | 331 | 1.6 | 3.2 | 0.13 | 0.99 | 0.99 | 89 | 1011.1 |
| 20260502180504 | 12 | 331 | 1.6 | 3.2 | 0.13 | 0.97 | 0.97 | 89 | 1011.1 |
| 20260502170503 | 12 | 48 | 1.6 | 4.8 | 0.43 | 0.84 | 0.84 | 88 | 1011.5 |
| 20260502164004 | 12 | 177 | 3.2 | 4.8 | 0.48 | 0.71 | 0.71 | 86 | 1012.0 |
| 20260502163004 | 12 | 136 | 1.6 | 3.2 | 0.46 | 0.61 | 0.61 | 85 | 1012.1 |
| 20260502162503 | 12 | 136 | 0.0 | 0.0 | 0.46 | 0.58 | 0.58 | 85 | 1012.2 |
| 20260502162004 | 12 | 136 | 0.0 | 0.0 | 0.46 | 0.56 | 0.56 | 84 | 1012.1 |
| 20260502161504 | 12 | 134 | 0.0 | 1.6 | 0.46 | 0.51 | 0.51 | 84 | 1012.2 |
| 20260502161004 | 13 | 134 | 0.0 | 1.6 | 0.43 | 0.48 | 0.48 | 83 | 1012.2 |
| 20260502160504 | 13 | 134 | 1.6 | 1.6 | 0.41 | 0.43 | 0.43 | 82 | 1012.4 |
| 20260502151504 | 15 | 117 | 1.6 | 4.8 | 0.05 | 0.05 | 0.05 | 74 | 1012.8 |
| 20260502151004 | 15 | 117 | 1.6 | 3.2 | 0.05 | 0.05 | 0.05 | 73 | 1012.7 |
| 20260502150503 | 15 | 117 | 0.0 | 1.6 | 0.03 | 0.03 | 0.03 | 70 | 1012.7 |
| 20260502123503 | 18 | 64 | 3.2 | 4.8 | 0.00 | 0.00 | 0.00 | 61 | 1014.1 |
| 20260502123004 | 18 | 215 | 1.6 | 4.8 | 0.00 | 0.00 | 0.00 | 61 | 1014.2 |
| 20260502122004 | 18 | 228 | 3.2 | 8.0 | 0.00 | 0.00 | 0.00 | 61 | 1014.4 |
| 20260502121504 | 18 | 228 | 3.2 | 9.7 | 0.00 | 0.00 | 0.00 | 60 | 1014.5 |
| 20260502120503 | 18 | 281 | 4.8 | 14.5 | 0.00 | 0.00 | 0.00 | 61 | 1014.6 |
| 20260502115003 | 18 | 123 | 3.2 | 4.8 | 0.00 | 0.00 | 0.00 | 62 | 1014.8 |
| 20260502114004 | 17 | 114 | 4.8 | 11.3 | 0.00 | 0.00 | 0.00 | 62 | 1014.9 |
| 20260502113503 | 17 | 125 | 4.8 | 11.3 | 0.00 | 0.00 | 0.00 | 63 | 1015.0 |
| 20260502113004 | 17 | 146 | 6.4 | 11.3 | 0.00 | 0.00 | 0.00 | 64 | 1015.1 |
| 20260502112504 | 17 | 95 | 3.2 | 4.8 | 0.00 | 0.00 | 0.00 | 65 | 1015.2 |
| 20260502112003 | 16 | 99 | 8.0 | 14.5 | 0.00 | 0.00 | 0.00 | 68 | 1015.4 |
| 20260502111504 | 16 | 119 | 1.6 | 9.7 | 0.00 | 0.00 | 0.00 | 68 | 1015.5 |
| 20260502111004 | 16 | 142 | 3.2 | 9.7 | 0.00 | 0.00 | 0.00 | 68 | 1015.7 |
| 20260502110504 | 16 | 163 | 4.8 | 11.3 | 0.00 | 0.00 | 0.00 | 66 | 1015.7 |
| 20260502110004 | 16 | 130 | 6.4 | 12.9 | 0.00 | 0.00 | 0.00 | 68 | 1015.8 |
| 20260502105503 | 16 | 186 | 4.8 | 14.5 | 0.00 | 0.00 | 0.00 | 69 | 1015.8 |
| 20260502105003 | 15 | 112 | 6.4 | 16.1 | 0.00 | 0.00 | 0.00 | 69 | 1015.9 |
| 20260502104503 | 15 | 202 | 4.8 | 9.7 | 0.00 | 0.00 | 0.00 | 68 | 1016.0 |
| 20260502104004 | 16 | 214 | 3.2 | 4.8 | 0.00 | 0.00 | 0.00 | 67 | 1015.9 |
| 20260502103504 | 16 | 215 | 3.2 | 8.0 | 0.00 | 0.00 | 0.00 | 66 | 1015.9 |
| 20260502103003 | 16 | 185 | 3.2 | 4.8 | 0.00 | 0.00 | 0.00 | 67 | 1016.0 |
| 20260502102504 | 16 | 181 | 6.4 | 11.3 | 0.00 | 0.00 | 0.00 | 67 | 1016.0 |
| 20260502102005 | 16 | 134 | 3.2 | 11.3 | 0.00 | 0.00 | 0.00 | 72 | 1016.0 |
| 20260502101504 | 15 | 114 | 8.0 | 12.9 | 0.00 | 0.00 | 0.00 | 70 | 1016.0 |
| 20260502101005 | 15 | 102 | 4.8 | 9.7 | 0.00 | 0.00 | 0.00 | 72 | 1016.1 |
| 20260502100504 | 15 | 134 | 6.4 | 11.3 | 0.00 | 0.00 | 0.00 | 73 | 1016.2 |
| 20260502091004 | 13 | 231 | 1.6 | 3.2 | 0.00 | 0.00 | 0.00 | 81 | 1016.4 |
| 20260502071003 | 9 | 233 | 0.0 | 1.6 | 0.00 | 0.00 | 0.00 | 91 | 1017.2 |
| 20260502070504 | 9 | 233 | 0.0 | 1.6 | 0.00 | 0.00 | 0.00 | 92 | 1017.2 |
| 20260502070004 | 8 | 201 | 0.0 | 1.6 | 0.00 | 0.00 | 0.00 | 93 | 1017.2 |
| 20260502065503 | 8 | 229 | 0.0 | 0.0 | 0.00 | 0.00 | 0.00 | 93 | 1017.2 |
| 20260502065005 | 8 | 229 | 0.0 | 0.0 | 0.00 | 0.00 | 0.00 | 93 | 1017.2 |
| 20260502064504 | 8 | 229 | 0.0 | 0.0 | 0.00 | 0.00 | 0.00 | 93 | 1017.3 |
| 20260502064003 | 8 | 229 | 0.0 | 0.0 | 0.00 | 0.00 | 0.00 | 94 | 1017.3 |
| 20260502063504 | 7 | 229 | 0.0 | 0.0 | 0.00 | 0.00 | 0.00 | 94 | 1017.3 |
| 20260502063004 | 7 | 229 | 0.0 | 0.0 | 0.00 | 0.00 | 0.00 | 94 | 1017.4 |
| 20260502062504 | 7 | 229 | 0.0 | 0.0 | 0.00 | 0.00 | 0.00 | 94 | 1017.4 |
| 20260502062004 | 7 | 229 | 0.0 | 0.0 | 0.00 | 0.00 | 0.00 | 94 | 1017.5 |
| 20260502061504 | 7 | 229 | 0.0 | 0.0 | 0.00 | 0.00 | 0.00 | 94 | 1017.5 |
| 20260502061004 | 6 | 229 | 0.0 | 0.0 | 0.00 | 0.00 | 0.00 | 94 | 1017.6 |
| 20260502060503 | 6 | 229 | 0.0 | 0.0 | 0.00 | 0.00 | 0.00 | 94 | 1017.6 |
| 20260502060004 | 6 | 229 | 0.0 | 0.0 | 0.00 | 0.00 | 0.00 | 93 | 1017.6 |
| 20260502055004 | 6 | 229 | 0.0 | 0.0 | 0.00 | 0.00 | 0.00 | 93 | 1017.5 |
| 20260502054503 | 6 | 229 | 0.0 | 0.0 | 0.00 | 0.00 | 0.00 | 92 | 1017.6 |
| 20260502054004 | 5 | 229 | 0.0 | 0.0 | 0.00 | 0.00 | 0.00 | 92 | 1017.6 |
| 20260502053504 | 5 | 229 | 0.0 | 0.0 | 0.00 | 0.00 | 0.00 | 92 | 1017.6 |
| 20260502053004 | 5 | 229 | 0.0 | 0.0 | 0.00 | 0.00 | 0.00 | 92 | 1017.6 |
| 20260502052504 | 5 | 229 | 0.0 | 0.0 | 0.00 | 0.00 | 0.00 | 91 | 1017.5 |
| 20260502052004 | 5 | 229 | 0.0 | 0.0 | 0.00 | 0.00 | 0.00 | 91 | 1017.5 |
| 20260502051504 | 5 | 229 | 0.0 | 0.0 | 0.00 | 0.00 | 0.00 | 91 | 1017.4 |
| 20260502051004 | 5 | 229 | 0.0 | 0.0 | 0.00 | 0.00 | 0.00 | 91 | 1017.4 |
| 20260502050504 | 5 | 229 | 0.0 | 0.0 | 0.00 | 0.00 | 0.00 | 91 | 1017.3 |
| 20260502050003 | 5 | 226 | 0.0 | 0.0 | 0.00 | 0.00 | 0.00 | 91 | 1017.2 |
| 20260502045504 | 5 | 226 | 0.0 | 0.0 | 0.00 | 0.00 | 0.00 | 91 | 1017.2 |
| 20260502044504 | 5 | 226 | 0.0 | 0.0 | 0.00 | 0.00 | 0.00 | 91 | 1017.2 |
| 20260502044004 | 5 | 226 | 0.0 | 0.0 | 0.00 | 0.00 | 0.00 | 91 | 1017.1 |
| 20260502043003 | 5 | 226 | 0.0 | 0.0 | 0.00 | 0.00 | 0.00 | 91 | 1017.1 |
| 20260502042503 | 5 | 226 | 0.0 | 0.0 | 0.00 | 0.00 | 0.00 | 91 | 1017.1 |
| 20260502042004 | 5 | 226 | 0.0 | 0.0 | 0.00 | 0.00 | 0.00 | 91 | 1017.2 |
| 20260502041503 | 5 | 226 | 0.0 | 0.0 | 0.00 | 0.00 | 0.00 | 91 | 1017.3 |
| 20260502041003 | 5 | 226 | 0.0 | 0.0 | 0.00 | 0.00 | 0.00 | 91 | 1017.3 |
| 20260502040504 | 5 | 226 | 0.0 | 0.0 | 0.00 | 0.00 | 0.00 | 91 | 1017.3 |
| 20260502040004 | 5 | 226 | 0.0 | 0.0 | 0.00 | 0.00 | 0.00 | 91 | 1017.3 |
| 20260502035503 | 5 | 226 | 1.6 | 1.6 | 0.00 | 0.00 | 0.00 | 90 | 1017.3 |
| 20260502035003 | 5 | 226 | 0.0 | 0.0 | 0.00 | 0.00 | 0.00 | 90 | 1017.4 |
| 20260502034004 | 5 | 226 | 0.0 | 1.6 | 0.00 | 0.00 | 0.00 | 90 | 1017.5 |
| 20260502033503 | 6 | 226 | 0.0 | 1.6 | 0.00 | 0.00 | 0.00 | 90 | 1017.6 |
| 20260502033004 | 6 | 226 | 0.0 | 1.6 | 0.00 | 0.00 | 0.00 | 90 | 1017.7 |
| 20260502032504 | 6 | 226 | 0.0 | 0.0 | 0.00 | 0.00 | 0.00 | 91 | 1017.7 |
| 20260502031504 | 6 | 226 | 0.0 | 0.0 | 0.00 | 0.00 | 0.00 | 90 | 1017.8 |
| 20260502031004 | 6 | 226 | 0.0 | 4.8 | 0.00 | 0.00 | 0.00 | 90 | 1017.9 |
| 20260502030503 | 6 | 226 | 1.6 | 3.2 | 0.00 | 0.00 | 0.00 | 90 | 1017.9 |
| 20260502030004 | 6 | 226 | 1.6 | 3.2 | 0.00 | 0.00 | 0.00 | 90 | 1017.9 |
| 20260502025503 | 6 | 226 | 0.0 | 0.0 | 0.00 | 0.00 | 0.00 | 90 | 1018.0 |
| 20260502025003 | 6 | 226 | 0.0 | 0.0 | 0.00 | 0.00 | 0.00 | 90 | 1018.0 |
| 20260502024503 | 6 | 226 | 0.0 | 0.0 | 0.00 | 0.00 | 0.00 | 90 | 1018.0 |
| 20260502024004 | 6 | 226 | 0.0 | 0.0 | 0.00 | 0.00 | 0.00 | 90 | 1018.0 |
| 20260502023503 | 6 | 226 | 0.0 | 1.6 | 0.00 | 0.00 | 0.00 | 90 | 1018.1 |
| 20260502022503 | 6 | 225 | 0.0 | 3.2 | 0.00 | 0.00 | 0.00 | 90 | 1018.2 |
| 20260502022003 | 6 | 225 | 0.0 | 3.2 | 0.00 | 0.00 | 0.00 | 90 | 1018.4 |
| 20260502021503 | 6 | 225 | 0.0 | 3.2 | 0.00 | 0.00 | 0.00 | 90 | 1018.4 |
| 20260502020504 | 6 | 225 | 3.2 | 4.8 | 0.00 | 0.00 | 0.00 | 90 | 1018.4 |
| 20260502020004 | 6 | 226 | 3.2 | 4.8 | 0.00 | 0.00 | 0.00 | 90 | 1018.4 |
| 20260502015504 | 6 | 226 | 0.0 | 1.6 | 0.00 | 0.00 | 0.00 | 89 | 1018.4 |
| 20260502014504 | 6 | 226 | 3.2 | 4.8 | 0.00 | 0.00 | 0.00 | 89 | 1018.5 |
| 20260502014004 | 6 | 226 | 0.0 | 3.2 | 0.00 | 0.00 | 0.00 | 89 | 1018.5 |
| 20260502013504 | 6 | 226 | 1.6 | 3.2 | 0.00 | 0.00 | 0.00 | 89 | 1018.5 |
| 20260502013005 | 7 | 226 | 0.0 | 0.0 | 0.00 | 0.00 | 0.00 | 89 | 1018.5 |
| 20260502012503 | 7 | 226 | 0.0 | 0.0 | 0.00 | 0.00 | 0.00 | 89 | 1018.5 |
| 20260502012003 | 7 | 226 | 0.0 | 0.0 | 0.00 | 0.00 | 0.00 | 89 | 1018.7 |
| 20260502011504 | 7 | 226 | 0.0 | 0.0 | 0.00 | 0.00 | 0.00 | 89 | 1018.6 |
| 20260502011004 | 7 | 226 | 0.0 | 0.0 | 0.00 | 0.00 | 0.00 | 89 | 1018.6 |
| 20260502010004 | 7 | 226 | 0.0 | 3.2 | 0.00 | 0.00 | 0.00 | 89 | 1018.7 |
| 20260502005504 | 7 | 226 | 3.2 | 4.8 | 0.00 | 0.00 | 0.00 | 89 | 1018.8 |
| 20260502005004 | 7 | 226 | 1.6 | 4.8 | 0.00 | 0.00 | 0.00 | 89 | 1018.9 |
| 20260502004504 | 7 | 226 | 3.2 | 4.8 | 0.00 | 0.00 | 0.00 | 89 | 1018.8 |
| 20260502004004 | 7 | 226 | 3.2 | 4.8 | 0.00 | 0.00 | 0.00 | 89 | 1018.9 |
| 20260502003004 | 7 | 226 | 0.0 | 0.0 | 0.00 | 0.00 | 0.00 | 88 | 1019.0 |
| 20260502002503 | 7 | 226 | 0.0 | 1.6 | 0.00 | 0.00 | 0.00 | 88 | 1019.1 |
| 20260502002003 | 8 | 226 | 0.0 | 1.6 | 0.00 | 0.00 | 0.00 | 88 | 1019.0 |
| 20260502000504 | 8 | 226 | 0.0 | 0.0 | 0.00 | 0.00 | 0.00 | 88 | 1019.0 |
| 20260502000004 | 8 | 226 | 0.0 | 0.0 | 0.00 | 0.00 | 0.00 | 88 | 1019.0 |
| 20260501235503 | 8 | 226 | 0.0 | 3.2 | 0.00 | 0.00 | 0.00 | 88 | 1019.0 |
| 20260501234504 | 8 | 226 | 0.0 | 3.2 | 0.00 | 0.00 | 0.00 | 89 | 1019.0 |
| 20260501234004 | 8 | 226 | 1.6 | 1.6 | 0.00 | 0.00 | 0.00 | 89 | 1019.1 |
| 20260501232503 | 9 | 226 | 3.2 | 4.8 | 0.00 | 0.00 | 0.00 | 89 | 1019.2 |
| 20260501232004 | 9 | 231 | 4.8 | 4.8 | 0.00 | 0.00 | 0.00 | 89 | 1019.3 |
| 20260501231003 | 9 | 235 | 3.2 | 4.8 | 0.00 | 0.00 | 0.00 | 89 | 1019.4 |
| 20260501230503 | 9 | 236 | 3.2 | 4.8 | 0.00 | 0.00 | 0.00 | 88 | 1019.5 |
| 20260501230004 | 9 | 236 | 0.0 | 1.6 | 0.00 | 0.00 | 0.00 | 88 | 1019.4 |
| 20260501225504 | 9 | 236 | 1.6 | 3.2 | 0.00 | 0.00 | 0.00 | 88 | 1019.4 |
| 20260501225004 | 9 | 236 | 1.6 | 4.8 | 0.00 | 0.00 | 0.00 | 88 | 1019.4 |
| 20260501224004 | 9 | 236 | 3.2 | 4.8 | 0.00 | 0.00 | 0.00 | 88 | 1019.4 |
| 20260501223504 | 9 | 236 | 4.8 | 8.0 | 0.00 | 0.00 | 0.00 | 88 | 1019.4 |
| 20260501223004 | 9 | 236 | 4.8 | 8.0 | 0.00 | 0.00 | 0.00 | 88 | 1019.4 |
| 20260501222504 | 9 | 242 | 3.2 | 4.8 | 0.00 | 0.00 | 0.00 | 88 | 1019.5 |
| 20260501222004 | 9 | 249 | 3.2 | 4.8 | 0.00 | 0.00 | 0.00 | 88 | 1019.5 |